Regional Weather Roundup
Issued by NWS

Home | Current Version | Previous Version | Text Only | Print | Product List | Glossary Off
Versions: 1 2 3 4 5 6 7 8 9 10 11 12 13 14 15 16 17 18 19 20 21 22 23 24 25 26 27

000
ASUS45 KPSR 201910
RWRAZ

ARIZONA HOURLY REGIONAL WEATHER ROUNDUP
NATIONAL WEATHER SERVICE PHOENIX AZ
1200 PM MST THU JUL 20 2017

NOTE: FAIR INDICATES FEW OR NO CLOUDS BELOW 12,000 FEET WITH NO
SIGNIFICANT WEATHER AND/OR OBSTRUCTIONS TO VISIBILITY.

AZZ001>003-036-202000-
NORTHWEST ARIZONA

CITY           SKY/WX    TMP DP  RH WIND       PRES   REMARKS
BULLHEAD CITY  PTSUNNY  100  59  25 SW7       29.92F HX 100
KINGMAN        SUNNY     88  56  33 SW12G21   30.13S
$$

AZZ004>008-015-016-018-202000-
NORTH CENTRAL ARIZONA

CITY           SKY/WX    TMP DP  RH WIND       PRES   REMARKS
GRAND CANYON   MOSUNNY   78  54  43 W10       30.36F
WILLIAMS       MOSUNNY   75  55  50 W7G16     30.37F
PRESCOTT       PTSUNNY   80  59  48 NE5       30.25F
FLAGSTAFF      CLOUDY    61  58  90 NW6       30.39S
PAYSON         MOSUNNY   77  59  53 CALM      30.29F
PAGE           SUNNY     90  55  30 NW7       30.15F
$$

AZZ009>014-017-202000-
NORTHEAST ARIZONA

CITY           SKY/WX    TMP DP  RH WIND       PRES   REMARKS
WINSLOW        MOSUNNY   87  51  28 W6G21     30.21F
SAINT JOHNS    MOSUNNY   82  53  36 E8        30.26F
WINDOW ROCK    CLOUDY    82  52  35 S10       30.32F
SHOW LOW       PTSUNNY   73  54  49 S12       30.34F
$$

AZZ540-542>544-546-548-202000-
GREATER PHOENIX AREA

CITY           SKY/WX    TMP DP  RH WIND       PRES   REMARKS
PHOENIX        MOSUNNY   96  60  30 VRB3      29.96F
BUCKEYE        SUNNY     95  59  30 SE8       29.97F
GLENDALE       PTSUNNY   97  63  32 CALM      29.99F
LUKE AFB       MOSUNNY   96  62  31 E6        29.96F
DEER VALLEY    MOSUNNY   95  62  33 VRB3      29.98F
SCOTTSDALE     MOSUNNY   94  59  31 SW6       30.00F
MESA-FALCON      N/A     93  63  36 MISG      29.99F
CHANDLER       SUNNY     97  61  30 VRB6      29.98F
$$

AZZ539-553-202000-
SOUTHWEST MARICOPA COUNTY AND PINAL COUNTY

CITY           SKY/WX    TMP DP  RH WIND       PRES   REMARKS
CASA GRANDE    SUNNY     93  67  42 CALM      29.99F
GILA BEND      FAIR      97  58  27 S8        29.95F
$$

AZZ503-504-507>509-202000-
SOUTHEAST ARIZONA

CITY           SKY/WX    TMP DP  RH WIND       PRES   REMARKS
TUCSON         MOSUNNY   90  65  43 W3        30.08F
DAVIS-MONTHAN  SUNNY     91  64  40 CALM      30.07F
RYAN FIELD     SUNNY     88  66  48 W5        30.08F
NOGALES        PTSUNNY   85  63  47 CALM      30.15F
SIERRA VISTA   PTSUNNY   81  60  48 CALM      30.23F
DOUGLAS        MOSUNNY   81  61  50 MISG      30.19F
SAFFORD        MOSUNNY   84  63  49 VRB6      30.11F
$$

AZZ532-202000-
SOUTHWEST ARIZONA

CITY           SKY/WX    TMP DP  RH WIND       PRES   REMARKS
YUMA           MOSUNNY  101  62  27 S10       29.90F HX 102
$$

CAZ041-043-047-048-061-525>527-560>570-202000-
SOUTHERN CALIFORNIA

CITY           SKY/WX    TMP DP  RH WIND       PRES   REMARKS
DOWNTOWN L.A.  SUNNY     85  60  42 W3        29.99F
L.A. AIRPORT   MOSUNNY   78  66  66 W10       30.01F
SAN DIEGO      PTSUNNY   76  65  68 SW9       30.02F
BURBANK        SUNNY     84  61  45 VRB7      30.01F
ONTARIO        MOSUNNY   87  60  40 W6        30.01F
RIVERSIDE      SUNNY     87  62  43 W6        30.00F
PALM SPRINGS   SUNNY    100  62  28 VRB5      29.93F HX 101
EL CENTRO NAS  MOSUNNY  100  58  24 SE7       29.90F
IMPERIAL       MOSUNNY  102  68  33 NE7       29.87F HX 108
BLYTHE         SUNNY    103  55  20 S12       29.90F HX 101
NEEDLES        SUNNY    102  56  21 S9        29.93F HX 101
$$

NVZ020-UTZ003-202000-
SOUTHERN NEVADA-UTAH

CITY           SKY/WX    TMP DP  RH WIND       PRES   REMARKS
LAS VEGAS      CLOUDY    93  63  36 E8        30.01F
SALT LAKE CITY PTSUNNY   91  55  29 S24G37    30.07F
$$

NMZ009-TXZ055-202000-
NEW MEXICO-WEST TEXAS

CITY           SKY/WX    TMP DP  RH WIND       PRES   REMARKS
ALBUQUERQUE    MOSUNNY   84  52  33 SW14      30.27F
EL PASO        MOSUNNY   86  60  41 SE8G17    30.18F
$$


........................KEY........................
SKY/WX - SKY CONDITION/WEATHER
TMP    - TEMPERATURE IN FAHRENHEIT
DP     - DEW POINT IN FAHRENHEIT
RH     - RELATIVE HUMIDITY IN PERCENT
WIND   - DIRECTION AND SPEED IN MILES PER HOUR (MPH)
VRB    - VARIABLE WIND DIRECTION
PRES   - MEAN SEA LEVEL PRESSURE IN INCHES OF MERCURY
         F - FALLING PRESSURE   R - RISING PRESSURE
         S - STEADY PRESSURE
VSB    - VISIBILITY IN MILES
HX     - HEAT INDEX IN FAHRENHEIT
WCI    - WIND CHILL INDEX IN FAHRENHEIT
TC     - TEMPERATURE IN CELSIUS WHICH IS ALSO KNOWN AS
         TEMPERATURE IN CENTIGRADE
AFB    - AIR FORCE BASE
         LUKE AFB IS LUKE AIR FORCE BASE
         DAVIS-MONTHAN IS DAVIS-MONTHAN AIR FORCE BASE
NAS    - NAVAL AIR STATION
         EL CENTRO NAS IS EL CENTRO NAVAL AIR STATION
N/A    - NOT AVAILABLE





USA.gov is the U.S. government's official web portal to all federal, state and local government web resources and services.